Date,TemperatureHighF,TemperatureAvgF,TemperatureLowF,DewpointHighF,DewpointAvgF,DewpointLowF,HumidityHigh,HumidityAvg,HumidityLow,PressureMaxIn,PressureMinIn,WindSpeedMaxMPH,WindSpeedAvgMPH,GustSpeedMaxMPH,PrecipitationSumIn
2013-2-1,74.0,49.9,35.0,44.0,35.8,28.0,87,61,29,30.36,30.09,14,5,15,0.00
2013-2-2,66.0,50.2,38.0,58.0,42.7,30.0,100,79,37,30.36,30.14,14,5,16,0.00
2013-2-3,73.0,48.9,27.0,52.0,39.9,25.0,94,74,38,30.38,29.94,14,4,15,0.00
2013-2-4,78.0,60.6,45.0,56.0,47.6,35.0,96,66,32,29.94,29.78,14,6,15,0.00
2013-2-5,79.0,54.0,34.0,51.0,39.7,32.0,95,63,31,30.05,29.88,9,4,9,0.00
2013-2-6,81.0,56.8,39.0,77.0,53.4,39.0,100,89,53,30.00,29.77,9,3,16,0.00
2013-2-7,72.0,57.8,46.0,67.0,52.4,42.0,100,85,38,30.19,29.86,17,7,17,0.00
2013-2-8,66.0,47.4,30.0,65.0,43.2,30.0,100,87,52,30.30,30.04,12,4,14,0.00
2013-2-9,76.0,60.5,47.0,62.0,51.8,34.0,94,74,53,30.07,29.63,21,12,26,0.00
2013-2-10,65.0,51.5,38.0,62.0,48.0,38.0,100,89,46,29.99,29.71,21,5,25,0.16
2013-2-11,59.0,48.8,44.0,59.0,48.6,43.0,100,99,95,30.09,29.96,16,7,18,0.16
2013-2-12,62.0,48.5,36.0,61.0,46.4,34.0,100,93,54,30.16,29.87,21,9,22,0.05
2013-2-13,38.0,30.1,25.0,38.0,30.0,25.0,100,99,95,30.21,30.14,9,3,10,0.05
2013-2-20,49.0,48.6,48.0,49.0,48.6,48.0,100,100,100,29.67,29.61,16,13,17,0.07
2013-2-21,64.0,49.8,36.0,62.0,48.1,34.0,100,94,60,29.92,29.54,19,9,21,0.29
2013-2-22,55.0,39.3,28.0,53.0,38.3,28.0,100,96,81,30.17,29.92,13,6,14,0.29
2013-2-23,67.0,42.1,24.0,64.0,37.8,24.0,100,87,48,30.15,29.83,11,4,14,0.00
2013-2-24,82.0,56.2,34.0,56.0,42.3,26.0,90,64,29,29.86,29.49,24,8,25,0.00
2013-2-25,60.0,41.7,35.0,56.0,37.9,-99.9,100,89,70,29.96,29.55,26,14,34,0.04
2013-2-26,67.0,42.2,24.0,47.0,32.1,24.0,98,73,34,30.02,29.76,10,5,10,0.04
2013-2-27,57.0,44.4,33.0,38.0,30.5,25.0,94,62,29,30.31,29.82,19,10,27,0.00
2013-2-28,62.0,41.6,23.0,37.0,27.5,21.0,94,61,30,30.41,30.20,12,3,13,0.00